Voltar ao catálogo

ORBCOMM FM 115

AtivoComunicaçõesLEO
NORAD 41186·PAYLOAD·🇺🇸 United States

Lançado Dec 22, 2015 de Cape Canaveral Space Force Station

Loading…

Próximas Passagens (próximas 24 horas)

TLE

AtualizadoSource: Space-Track

Época: Sep 14, 2026, 03:13 UTC

1 41186U 15081H   26257.13432665  .00000340  00000-0  99116-4 0  9994
2 41186  46.9992  38.9124 0000862 322.2209  37.8618 14.63358741574241

Acompanhe ORBCOMM FM 115 em tempo real com AllMySat

Download on the App Store